Sobat POKER ONLINE - Agen DEWAPOKER Indonesia Terpercaya SOBAT POKER88

Jackpot

Texas Poker Multi Jackpot System

Kini Telah hadir Jackpot SUPER ROYAL FLUSH

Kini Telah hadir Jackpot 2000 (khusus table VIP keatas).

Ikutilah global jackpot yang tersedia di system kami, dengan system jackpot terbaru dan pertama di indonesia, anda dapat membeli jackpot dengan harga 100 rupiah saja dan menangkan hadiahnya hingga puluhan juta rupiah.

Jackpot bukanlah suatu keharusan untuk dibeli, namun kami memberikan suatu fitur tambahan untuk member tercinta dari www.sobatpoker.com.

Terdapat tiga pilihan harga jackpot yang bisa anda beli yaitu :100,500,1000 dan 2000(khusus table VIP Keatas) rupiah.

Hadiah dari Multi jackpot system www.sobatpoker.com

  1. full house x 10 harga jackpot yang anda beli.
      (contoh:anda membeli 1000 maka:1000 X10 = 10.000)
  2. four of kind x 250 harga jackpot yang anda beli
      (contoh:anda membeli 1000 maka:1000 X250 = 250.000)
  3. Straight flush x 1200
      (contoh:anda membeli 1000 maka:1000 X1200 = 1.200.000)
  4. Royal flush x 10000 harga jackpot yang anda beli
      (contoh:anda membeli 1000 maka:1000 X10000 = 10.000.000)
  5. SUPER ROYAL FLUSH x 30000 harga jackpot yang anda beli
      (contoh:anda membeli 1000 maka:1000 X30000 = 30.000.000)

Kondisi kartu

  1. full house adalah kondisi kartu dimana kartu anda dan kartu tengah dengan total 7 kartu bisa mendapatkan nilai 5 kartu dengan kombinasi 1 tris(three of kind) dan 1 pair, contoh 3 kartu 10 dan 2 kartu 5
  2. Four of kind adalah kondisi kartu dimana kartu anda dan kartu tengah dengan total 7 kartu bisa mendapatkan nilai 5 kartu dengan kombinasi 4 kartu yang sama jumlah dan 1 kartu apapun juga contoh anda mendapatkan 4 buah kartu angka 3 dan 1 kartu apapun.
  3. Staright flush adalah kondisi kartu dimana kartu anda dan kartu tengah dengan total 7 kartu bisa mendapatkan nilai 5 kartu dengan kombinasi seri / staright dengan kembang yang sama contoh : urutan kartu dari angka 5, 6, 7, 8 , 9 10 dengan kembang yg sama misalnya as hati
  4. Royal flush adalah kondisi kartu dimana kartu anda dan kartu tengah dengan total 7 kartu bisa mendapatkan nilai 5 kartu dengan kombinasi seri / staright dengan kembang yang sama tetapi kartu tersebut haruslah dimulai dari 10. contoh 10, Queen, Jack, King dan aces dengan kembang yang sama
  5. Super Royal flush adalah kondisi kartu dimana Kedua kartu anda digabung dengan 3 kartu pertama meja haruslah royal flush. contoh kartu anda 10,Queen kembang sama dan 3 kartu pertama meja adalah Jack, King dan aces dengan kembang yang sama

Demikian adalah penjelasan dari Multi Jackpot www.sobatpoker.com terima kasih dan selamat bermain salam hoki dari kami

Texas Poker Jackpot Winner

TOP SUPER ROYAL FLUSH
No.TanggalNamaPriceWin
121/07 07:22AL_AID4NSuper Royal flush30,000,000
221/07 02:20YOKOKLENSuper Royal flush1,500,000
321/07 00:26RIKACELL11Super Royal flush3,000,000
421/07 00:08ANKAR2018Super Royal flush6,000,000
521/07 00:07GACIEL1988Super Royal flush15,000,000
TOP ROYAL FLUSH
No.TanggalNamaPriceWin
121/07 14:06RAMBO1974Royal flush2,000,000
221/07 14:03CEKBOMRoyal flush5,000,000
321/07 14:02GEOLOGI88Royal flush10,000,000
421/07 13:56PUJ44NGGARoyal flush5,000,000
521/07 13:33GLOW103Royal flush2,000,000
TOP STRAIGHT FLUSH
No.TanggalNamaPriceWin
121/07 14:19UPIECStraight Flush120,000
221/07 14:19AAGBALET75Straight Flush1,200,000
321/07 14:18D6C192D3Straight Flush600,000
421/07 14:15LOV888Straight Flush1,200,000
521/07 14:14YAMIN21Straight Flush120,000
LATEST JACKPOT
No.TanggalNamaPriceWin
121/07 14:20AYUMI580Full House2,000
221/07 14:20WELBY123Full House2,000
321/07 14:20NOVHALXXFour Of A Kind50,000
421/07 14:20MARKONAYFull House5,000
521/07 14:20MAKIZEFull House5,000
621/07 14:20CEKI29Full House2,000
721/07 14:20B5ERGC6NYCFull House1,000
821/07 14:20AANTEONG3Full House1,000
921/07 14:20ARIA1490Full House10,000
1021/07 14:20TANETE88Full House10,000
1121/07 14:20NOFRIANDI4Full House500
1221/07 14:20SMD21Full House5,000
1321/07 14:20KELOR14Full House2,000
1421/07 14:20JHONLEBARFull House5,000
1521/07 14:20JP_B0S86Full House2,000
1621/07 14:20GOODBYE84Full House5,000
1721/07 14:20NYAKODIEFull House1,000
1821/07 14:20R4S_B0BFull House2,000
1921/07 14:20AP3KFull House2,000
2021/07 14:20UELG8YM1ZPFull House5,000
2121/07 14:20POSCANDU12Full House2,000
2221/07 14:2085456Full House5,000
2321/07 14:20CEKUNG_1Full House2,000
2421/07 14:19RAZA44Full House5,000
2521/07 14:19KEMAN212Full House1,000
2621/07 14:19DGYSQCAH46Full House2,000
2721/07 14:19DEPO_DARFull House5,000
2821/07 14:19IFALAKBARFull House10,000
2921/07 14:19TEMPEKLAHFull House2,000
3021/07 14:19BENTENG7Full House5,000
3121/07 14:19HERLINA130Four Of A Kind250,000
3221/07 14:19JOIN_0534Four Of A Kind50,000
3321/07 14:19AS_AS123Full House2,000
3421/07 14:19FGA16Full House5,000
3521/07 14:19JS757Full House2,000
3621/07 14:19JOKOKU11Four Of A Kind50,000
3721/07 14:19D19AOD3RVBFull House2,000
3821/07 14:19STEPANI2Full House5,000
3921/07 14:19SIGID55Full House2,000
4021/07 14:19NOVHALXXFull House2,000
4121/07 14:19MKNMIEFull House5,000
4221/07 14:19ANCE01Full House20,000
4321/07 14:19LAZADAQ1Full House5,000
4421/07 14:19KARYAA2Full House2,000
4521/07 14:19GHORXJU72MFull House5,000
4621/07 14:19LUBAS12Full House2,000
4721/07 14:19JRXS1288Full House2,000
4821/07 14:19D7MOKHL7QFFull House10,000
4921/07 14:19FRANS823Four Of A Kind125,000
5021/07 14:19DIVA1990Four Of A Kind500,000

Domino Multi Jackpot System

Ikutilah global jackpot yang tersedia di system kami, dengan system jackpot terbaru dan pertama di indonesia, anda dapat membeli jackpot dengan harga 100 rupiah saja dan menangkan hadiahnya hingga puluhan juta rupiah.

Jackpot bukanlah suatu keharusan untuk dibeli, namun kami memberikan suatu fitur tambahan untuk member tercinta dari www.sobatpoker.com.

Terdapat tiga pilihan harga jackpot yang bisa anda beli yaitu :100,500 dan 1000 rupiah.

Hadiah dari Multi jackpot system www.sobatpoker.com

  1. Murni Kecil x 50 harga jackpot yang anda beli.
      (contoh:anda membeli 1000 maka:1000 X 50 = 50.000)
  2. Murni Besar x 50 harga jackpot yang anda beli
      (contoh:anda membeli 1000 maka:1000 X 50 = 50.000)
  3. BALAK x 100 harga jackpot yang anda beli
      (contoh:anda membeli 1000 maka:1000 X 100 = 100.000)
  4. ENAM DEWA x 6666 harga jackpot yang anda beli
      (contoh:anda membeli 1000 maka:1000 X 6666 = 6.666.000)

Demikian adalah penjelasan dari Multi Jackpot www.sobatpoker.com terima kasih dan selamat bermain salam hoki dari kami

Domino Jackpot Winner

TOP ENAM DEWA
No.TanggalNamaPriceWin
121/07 13:58NOBOY11murni enam6,666,000
221/07 09:10GIRIAP17murni enam6,666,000
321/07 07:18LANA000murni enam666,600
421/07 01:22GARANG6666murni enam666,600
520/07 23:52BONG023murni enam6,666,000
TOP BALAK
No.TanggalNamaPriceWin
121/07 14:12TALIPOCONGbalak100,000
221/07 14:09LOLALA22balak50,000
321/07 14:08ZEZEL12balak100,000
421/07 14:06IDK897829balak100,000
521/07 14:06CHANDE13balak100,000
LATEST JACKPOT
No.TanggalNamaPriceWin
121/07 14:20SULUH87murni besar50,000
221/07 14:20AYU454murni kecil50,000
321/07 14:19PENGEK46murni besar5,000
421/07 14:18FANDIALDI2murni besar5,000
521/07 14:17MANDALA33murni besar50,000
621/07 14:17NOGORO87murni besar25,000
721/07 14:17NDOWER09murni kecil50,000
821/07 14:16D_ROCKmurni kecil50,000
921/07 14:16JABATH004murni kecil5,000
1021/07 14:16BUDAKBUIlucky9950,000
1121/07 14:15JACK5STARmurni kecil25,000
1221/07 14:15EABA9A0Emurni besar5,000
1321/07 14:14HHB28murni kecil25,000
1421/07 14:13BRONIZ15lucky99200,000
1521/07 14:13B74Rmurni kecil50,000
1621/07 14:12TALIPOCONGbalak100,000
1721/07 14:12AGUSETETmurni kecil25,000
1821/07 14:12ADI8900murni besar5,000
1921/07 14:11ADIUGEMEmurni besar50,000
2021/07 14:10YUDII01murni kecil50,000
2121/07 14:09EABA9A0Emurni besar5,000
2221/07 14:09SSAASSmurni kecil25,000
2321/07 14:09LOLALA22balak50,000
2421/07 14:09SIGILO_07murni kecil5,000
2521/07 14:09BALAHU9murni besar50,000
2621/07 14:08TETANUSEKEmurni kecil5,000
2721/07 14:08ZEZEL12balak100,000
2821/07 14:08SSAASSmurni kecil25,000
2921/07 14:08CHANDE13murni besar50,000
3021/07 14:07SAMEN23murni kecil5,000
3121/07 14:07ZAMILUNYmurni kecil25,000
3221/07 14:07NANGSE99lucky992,500
3321/07 14:07MIG77murni kecil25,000
3421/07 14:07HERU447murni kecil5,000
3521/07 14:06IDK897829balak100,000
3621/07 14:06GELEDEK1murni besar25,000
3721/07 14:06CHANDE13balak100,000
3821/07 14:06CWB6PED3RSmurni kecil25,000
3921/07 14:05DEALAVIE99murni kecil50,000
4021/07 14:05CHANDE13balak100,000
4121/07 14:05SPREADING9balak100,000
4221/07 14:05SITOYUSZmurni kecil50,000
4321/07 14:05DAHULAE600balak100,000
4421/07 14:05GUDAL81murni besar5,000
4521/07 14:04JALANGARlucky9910,000
4621/07 14:03O11B9TPF7Wbalak50,000
4721/07 14:03CULA89balak100,000
4821/07 14:03KIYOKOWmurni kecil50,000
4921/07 14:03MBAH157murni besar25,000
5021/07 14:02SIMORA04murni kecil50,000

Ceme Multi Jackpot System

Jackpot dilihat dari gabungan kartu pemain dengan kartu bandar. Bandar harus membeli jackpot sebanyak jumlah player yang sedang duduk. Sebagai contoh bila terdapat 3 pemain duduk bermain, dan bandar memutuskan untuk membeli jackpot Rp 1.000, maka pada periode tersebut bandar akan membeli jackpot sebanyak 3xRp1.000 = Rp3.000.

Jackpot bukanlah suatu keharusan untuk dibeli, namun kami memberikan suatu fitur tambahan untuk member tercinta dari www.sobatpoker.com.

Terdapat tiga pilihan harga jackpot yang bisa anda beli yaitu :100,500 dan 1000 rupiah.

Hadiah dari Multi jackpot system www.sobatpoker.com

  1. Murni Kecil x 50 harga jackpot yang anda beli.
      (contoh:anda membeli 1000 maka:1000 X 50 = 50.000)
  2. Murni Besar x 50 harga jackpot yang anda beli
      (contoh:anda membeli 1000 maka:1000 X 50 = 50.000)
  3. BALAK x 200 harga jackpot yang anda beli
      (contoh:anda membeli 1000 maka:1000 X 200 = 200.000)
  4. ENAM DEWA x 6666 harga jackpot yang anda beli
      (contoh:anda membeli 1000 maka:1000 X 6666 = 6.666.000)

Demikian adalah penjelasan dari Multi Jackpot www.sobatpoker.com terima kasih dan selamat bermain salam hoki dari kami

Ceme Jackpot Winner

TOP ENAM DEWA
No.TanggalNamaPriceWin
121/07 14:19OURIP_OPOmurni enam666,600
221/07 14:09BATAK66murni enam3,333,000
321/07 14:09ZIYA611murni enam666,600
421/07 14:03BUDREX_89murni enam666,600
521/07 14:03PAMANKUYmurni enam3,333,000
TOP BALAK
No.TanggalNamaPriceWin
121/07 14:20ERWAN55balak200,000
221/07 14:20ERWAN55balak200,000
321/07 14:20PIADAHbalak100,000
421/07 14:20SLAMET0829balak200,000
521/07 14:19HAHO7balak200,000
LATEST JACKPOT
No.TanggalNamaPriceWin
121/07 14:20SOGIAHMAD8murni besar5,000
221/07 14:20BOBOOOY06murni kecil50,000
321/07 14:20ERWAN55balak200,000
421/07 14:20ERWAN55balak200,000
521/07 14:20PIADAHbalak100,000
621/07 14:20JOKKULITmurni besar50,000
721/07 14:20SLAMET0829balak200,000
821/07 14:20C3CE2B04murni kecil5,000
921/07 14:20SADIES9988murni kecil5,000
1021/07 14:20MARITUN12murni kecil50,000
1121/07 14:20RRHOKI99murni besar50,000
1221/07 14:19GILAHOKILOmurni kecil50,000
1321/07 14:19HAHO7balak200,000
1421/07 14:19VIICHUbalak200,000
1521/07 14:19OURIP_OPOmurni enam666,600
1621/07 14:19KOMO__88murni besar25,000
1721/07 14:19DAECSSSmurni besar5,000
1821/07 14:19D3W4D4Rmurni kecil50,000
1921/07 14:19SULIS303murni kecil5,000
2021/07 14:19ALVA1212murni besar25,000
2121/07 14:19RDI234murni kecil50,000
2221/07 14:19V_ROSSOmurni besar25,000
2321/07 14:18COPET867balak100,000
2421/07 14:18ZHIDOEL777murni kecil50,000
2521/07 14:18JDBTKUO066murni kecil5,000
2621/07 14:18JANAKRAY99murni besar50,000
2721/07 14:18DEBLENK9murni besar50,000
2821/07 14:18UWINK23murni besar50,000
2921/07 14:18CEPOK205murni kecil50,000
3021/07 14:18SUTASUTAmurni kecil25,000
3121/07 14:18K7E0TGAVLVmurni besar25,000
3221/07 14:18JOHNYDEPmurni besar50,000
3321/07 14:18UMI8989murni besar25,000
3421/07 14:18BONE99murni kecil50,000
3521/07 14:18JELLITHENKbalak200,000
3621/07 14:18DEWWA89murni kecil50,000
3721/07 14:17KAVA09murni besar5,000
3821/07 14:17RIMAJAYA45balak200,000
3921/07 14:17MAY732balak200,000
4021/07 14:17CROSS676murni kecil50,000
4121/07 14:17INPUN99murni kecil50,000
4221/07 14:17KISWATI56murni besar25,000
4321/07 14:17NTVEPGZJJFmurni besar50,000
4421/07 14:17MBAH_WIRY0murni kecil50,000
4521/07 14:17CACUBIKbalak200,000
4621/07 14:17CACUBIKmurni kecil50,000
4721/07 14:17BAIHAKI09murni kecil25,000
4821/07 14:17DRAULmurni kecil50,000
4921/07 14:17MANDA378murni kecil5,000
5021/07 14:17PANISAHbalak200,000